Other Public Products
Issued by NWS Grand Forks, ND

Home | Current Version | Previous Version | Graphics & Text | Print | Product List | Glossary On
Versions: 1 2 3 4 5 6 7 8 9 10 11 12 13 14 15 16 17 18 19 20 21 22 23 24 25 26 27 28 29 30 31 32 33 34 35 36 37 38 39 40 41 42 43 44 45 46 47 48 49 50
000
FPUS83 KFGF 291731
OPUFGF
PRAIRIE TO PINES WEATHER ROUNDUP
NATIONAL WEATHER SERVICE EASTERN NORTH DAKOTA/GRAND FORKS ND
1200 PM CDT SAT APR 29 2017

 **SATELLITE DATA USED TO AUGMENT SKY COVER AT AUTOMATED STATIONS**
 *****  WEATHER ACROSS EASTERN NORTH DAKOTA  *****

CITY           SKY/WX    TMP DP  RH WIND       PRES   REMARKS
GRAND FORKS    FAIR      53  23  31 S5        30.33F
GRAND FORKS AF FAIR      53  21  29 SW5       30.33F
GRAND CITY NWS NOT AVBL
BUXTON           N/A     43  25  48 SW2         N/A
DEVILS LAKE    FAIR      51  21  30 SW10      30.31R
FARGO          FAIR      53  19  26 VRB5      30.33F
WAHPETON ARPT  FAIR      50  23  34 CALM      30.34R
$$

 *****  WEATHER ACROSS CENTRAL AND WESTERN NORTH DAKOTA  *****

CITY           SKY/WX    TMP DP  RH WIND       PRES   REMARKS
JAMESTOWN      FAIR      53  18  25 CALM      30.31S
BISMARCK       FAIR      58  17  20 CALM      30.31S
MINOT          FAIR      60  25  26 S20       30.23F
MINOT AFB      PTSUNNY   60  27  28 SW13G18   30.22F
GARRISON         N/A     57  22  25 W13       30.26F
WILLISTON      FAIR      56  31  38 CALM      30.26S
DICKINSON      FAIR      54  18  24 SW5       30.24F
HETTINGER      FAIR      52  19  27 VRB3      30.29S
$$

 *****  OTHER OBSERVATIONS NORTHEAST NORTH DAKOTA  *****

CITY           SKY/WX    TMP DP  RH WIND       PRES   REMARKS
WALHALLA       NOT AVBL
LANGDON        FAIR      59  19  21 S12       30.29S
CAVALIER         N/A     52  23  32 S9        30.31F
GRAFTON        FAIR      52  25  35 S10       30.35S
CANDO          NOT AVBL
FORT TOTTEN      N/A     56  22  27 SW7       29.95S
ROLLA          PTSUNNY   57  21  24 SW13G22   30.26S
RUGBY          NOT AVBL
 ***** THE ABOVE OBSERVATIONS ARE NON NWS ARE NOT QUALITY
        CONTROLLED AND MAY MIS-REPORT RAIN FOR SNOW...
$$

 *****  OTHER OBSERVATIONS SOUTHEAST NORTH DAKOTA *****

CITY           SKY/WX    TMP DP  RH WIND       PRES   REMARKS
COOPERSTOWN    FAIR      54  21  28 VRB3      30.33R
VALLEY CITY    FAIR      54  18  24 VRB5      30.33S
OAKES          NOT AVBL
GWINNER        SUNNY     54  19  26 MISG      30.33S
SHEYENNE NWR     N/A     53  19  26 SW6       29.95S
BUFFALO          N/A     54  16  22 CALM        N/A
WYNDMERE         N/A     54  21  28 E3          N/A
 ***** THE ABOVE OBSERVATIONS ARE NON NWS ARE NOT QUALITY
       CONTROLLED AND MAY MIS-REPORT RAIN FOR SNOW...
$$

  *****  WEATHER ACROSS NORTHERN MINNESOTA  *****

CITY           SKY/WX    TMP DP  RH WIND       PRES   REMARKS
FLAG ISLAND    FAIR      39  30  70 SE7       30.35S
WARROAD        FAIR      50  30  46 E7        30.34F
ROSEAU         FAIR      52  21  30 E6        30.33F
HALLOCK        FAIR      54  18  24 CALM      30.32F
THF RVR FALLS  FAIR      51  15  23 VRB3      30.33F
HALSTAD          N/A     53  21  28 CALM        N/A
FOSSTON        FAIR      50  19  29 SW7       30.33S
BAUDETTE       FAIR      51  14  22 CALM      30.32F
WASKISH        FAIR      48  28  46 W12       30.33S
CROOKSTON      FAIR      52  23  32 CALM      30.34S
$$
  *****  WEATHER ACROSS CENTRAL AND WEST MINNESOTA  *****

CITY           SKY/WX    TMP DP  RH WIND       PRES   REMARKS
BEMIDJI        FAIR      51  20  30 SE6       30.32S
PARK RAPIDS    FAIR      50  19  29 CALM      30.31F
WADENA         FAIR      48  25  40 NE3       30.31R
DETROIT LAKES  FAIR      50  19  29 N3        30.34R
MOORHEAD       FAIR      52  18  25 S3        30.35R
FERGUS FALLS   FAIR      50  25  37 CALM      30.32R
ELBOW LAKE     FAIR      49  23  36 N3        30.33R
MORRIS MN      FAIR      52  25  35 NE6       30.32R
STAPLES        FAIR      48  19  32 CALM      30.32R
WHEATON        FAIR      52  19  28 SE9       30.35S
$$
  *****  WEATHER ELSEWHERE ACROSS MINNESOTA  *****

CITY           SKY/WX    TMP DP  RH WIND       PRES   REMARKS
DULUTH         FAIR      46  22  38 VRB6G17   30.32F
INTRNTL FALLS  FAIR      49  16  26 E7        30.33F
ELY            FAIR      45  10  24 N5        30.31F
CLOQUET        FAIR      48  16  27 E7        30.30F
BRAINERD       FAIR      49  22  34 E9        30.30F
HIBBING        FAIR      46  17  31 VRB3      30.31F
ALEXANDRIA     FAIR      50  22  33 E10       30.32S
SAINT CLOUD    FAIR      49  23  36 NE13G22   30.29F
MINNEAPOLIS    CLOUDY    51  24  34 NE14      30.27F
$$

  *****  WEATHER ACROSS SOUTH DAKOTA  *****

CITY           SKY/WX    TMP DP  RH WIND       PRES   REMARKS
SIOUX FALLS    PTSUNNY   50  31  48 NE16      30.23S
BROOKINGS      FAIR      47  18  31 NE10      30.27R
WATERTOWN      FAIR      48  22  35 VRB6      30.29R
HURON          FAIR      51  21  30 VRB5      30.30R
SISSETON         N/A     51  23  33 VRB7      30.32R
ABERDEEN       FAIR      52  15  23 N6        30.33R
MITCHELL       FAIR      52  23  32 N15G22    30.26F
PIERRE         FAIR      52  18  26 NE6       30.29F
MOBRIDGE       FAIR      56  14  19 W7        30.30R
RAPID CITY     PTSUNNY   50  18  28 E6        30.28F
$$

  *****  SOME WEATHER IN NEARBY STATES *****

CITY           SKY/WX    TMP DP  RH WIND       PRES   REMARKS
GLASGOW MT     FAIR      53  29  39 SE3       30.24S
GREAT FALLS MT FAIR      50  30  46 W13       30.18F
CHEYENNE WY    CLOUDY    30  21  69 N14       30.20S WCI  19
SCOTTSBLUFF NE FAIR      41  26  55 N14       30.26R
OMAHA NE       LGT RAIN  46  36  68 NE18      30.08R
DES MOINES IA  LGT RAIN  44  39  82 NE15G25   30.12R
DAVENPORT IA   RAIN      43  38  82 E12       30.20R
CHICAGO IL     LGT RAIN  44  33  65 NE22G28   30.20R
EAU CLAIRE WI  FAIR      49  24  37 E16G24    30.26F
LA CROSSE WI   FAIR      48  27  44 NE12      30.23F
$$

  *****  SOME NATIONAL WEATHER *****

CITY           SKY/WX    TMP DP  RH WIND       PRES   REMARKS
LA GUARDIA NY  PTSUNNY   83  60  45 W15G24    29.94F
RALEIGH NC     PTSUNNY   85  70  60 SW12      30.18F
ATLANTA GA     PTSUNNY   83  66  56 S14       30.15F
NEW ORLEANS LA PTSUNNY   83  74  74 SE22G33   29.92S
OKLAHOMA CITY  RAIN      49  48  97 NE16      29.64F
ALBUQUERQUE NM LGT SNOW  33  33 100 CALM      29.97R VSB 1
SALT LAKE CITY FAIR      49  22  34 CALM      30.18S
LOS ANGELES CA FAIR      76  16  10 VRB5      30.01R
BOISE ID       FAIR      50  30  46 NW5       30.26S
SEATTLE WA     CLOUDY    48  41  76 SE5       30.28F
$$

*** WEATHER ACROSS MANITOBA...SASKATCHEWAN AND ONTARIO ***
                ***ONTARIO***

CITY           SKY/WX    TMP DP  RH WIND       PRES   REMARKS
GERALDTON      SUNNY     41  16  36 VRB2      30.33R
THUNDER BAY    SUNNY     43  18  36 VRB7      30.35F
SIOUX LOOKOUT  MOSUNNY   41  10  28 VRB7      30.36
TORONTO        PTSUNNY   54  36  50 N8        30.11S
BIG TROUT LK   SUNNY     32  16  51 NW5       30.34R
PICKLE LAKE    PTSUNNY   39  10  30 VRB3      30.33R
DRYDEN         SUNNY     43  10  26 W3        30.34S
KENORA         MOSUNNY   46   9  21 W5        30.34R
$$
                *** MANITOBA***

CITY           SKY/WX    TMP DP  RH WIND       PRES   REMARKS
BRANDON        MOSUNNY   59  27  29 SW12      30.21F
DAUPHIN        MOSUNNY   57  23  26 SE6       30.19S
ISLAND LAKE    MOSUNNY   39  19  45 CALM      30.33S
PILOT MOUND      N/A     57  19  23 S13G18      N/A
THE PAS        CLOUDY    46  12  25 SE18      30.19S
THOMPSON       MOSUNNY   30  19  64 CALM      30.32S
WINNIPEG       MOSUNNY   55  14  19 S14       30.31F
LYNN LAKE      CLOUDY    36  23  60 E9        30.22F
CHURCHILL      CRYSTALS   9   7  92 NW7       30.42S WCI  -3
GILLAM         PTSUNNY   25  14  63 NE7       30.39S WCI  17
$$
                ***SASKATCHEWAN***

CITY           SKY/WX    TMP DP  RH WIND       PRES   REMARKS
ESTEVAN        MOSUNNY   54  27  35 SW6       30.24R
KINDERSLEY     MOSUNNY   46  27  46 W3        30.15F
LLOYDMINSTER   MOSUNNY   48  28  46 SW8       30.11S
PRINCE ALBERT  CLOUDY    45  34  65 E5        30.13S
REGINA         MOSUNNY   48  34  57 W14       30.20F
YORKTON        PTSUNNY   52  32  46 SW15G28   30.15F


USA.gov is the U.S. government's official web portal to all federal, state and local government web resources and services.